GEFSMA_con_cape1000_228.txt.gz
Probability
6 3 6 3 3 6 6 6 3 6 6 10 10 6 6 6 6 6 10 35 58 71 61 45 35 35 29 29 23 26 26 26 29 26 19 23 16 13 10 16 19 23 19
6 6 6 3 3 6 3 3 0 0 3 10 6 6 6 6 6 10 13 16 45 61 65 52 48 39 32 29 29 29 32 32 26 26 23 16 16 16 13 13 10 23 19
10 6 6 6 3 3 0 3 0 0 3 3 3 3 3 3 3 10 10 10 23 39 58 55 48 42 29 26 29 32 35 39 39 29 23 26 19 16 16 10 10 16 16
10 6 6 3 6 0 3 0 0 0 0 0 0 0 0 3 3 3 6 6 10 10 32 42 45 45 39 26 19 19 23 29 32 29 23 23 19 16 16 13 10 13 13
10 6 6 0 0 0 0 0 0 0 0 0 0 0 0 0 0 0 0 0 0 6 6 10 29 35 29 39 26 19 23 29 32 23 13 13 16 19 13 13 13 10 10
16 6 6 3 0 0 0 0 0 0 0 0 0 0 0 0 0 0 0 0 0 0 0 3 13 19 23 32 39 29 19 32 26 19 19 19 10 19 16 13 13 13 6
13 10 6 3 0 0 0 0 0 0 0 0 0 0 0 0 0 0 0 0 0 0 0 0 0 3 6 19 19 29 23 23 19 19 26 23 23 19 10 6 10 3 6
10 3 3 3 0 0 0 0 0 0 0 0 0 0 0 0 0 0 0 0 0 0 0 0 0 0 0 3 3 10 16 19 19 16 16 16 16 19 16 10 3 3 0
6 10 3 6 0 0 0 0 0 0 3 0 0 0 0 0 0 0 0 0 0 0 0 0 0 0 0 0 0 3 6 10 13 26 19 23 19 10 10 13 13 3 0
19 10 6 10 6 3 0 0 0 0 6 6 0 0 0 0 0 0 0 0 0 0 0 0 0 0 0 0 0 0 0 6 6 13 19 19 13 13 10 10 13 10 10
13 19 13 10 16 10 0 0 3 6 6 6 6 3 0 0 0 0 0 0 0 0 0 0 0 0 0 0 0 0 0 0 0 3 6 13 10 13 10 6 10 13 13
19 19 26 13 10 3 10 3 3 6 10 10 6 3 3 3 0 0 0 0 0 0 0 0 0 0 0 0 0 0 0 0 0 0 0 3 3 0 0 0 3 6 10
26 23 26 13 13 10 10 6 13 16 10 6 6 10 6 0 0 0 0 0 0 0 0 0 0 0 0 0 0 0 0 0 0 0 0 0 0 0 0 0 0 0 3
29 23 16 10 10 10 13 16 13 19 19 10 10 10 10 10 0 0 0 0 0 0 0 0 0 0 0 0 0 0 0 0 0 0 0 0 0 0 0 0 0 0 0
26 13 10 10 10 10 13 13 13 13 13 10 10 10 10 3 0 0 0 0 3 3 3 3 0 0 0 0 0 0 0 0 0 0 0 0 0 0 0 0 0 0 0
23 19 10 10 10 10 16 16 13 13 10 13 10 10 6 6 3 3 3 3 3 3 3 3 3 3 3 0 0 0 0 0 0 0 0 0 0 0 0 0 0 0 0
16 16 16 13 13 16 16 16 13 13 13 13 13 10 6 10 3 3 3 3 3 3 3 3 3 3 3 3 3 3 0 0 0 0 0 0 0 0 0 0 0 0 0
19 16 16 19 19 19 16 16 13 13 13 13 16 13 6 6 6 3 3 3 3 3 3 3 3 3 3 3 3 3 3 0 0 0 0 0 0 0 0 0 0 0 0
16 23 19 19 16 16 16 16 13 13 13 16 16 10 10 6 6 3 3 3 3 3 3 3 3 3 3 3 3 3 3 3 3 0 0 0 0 0 0 0 0 0 0
16 19 16 13 13 13 19 19 16 16 10 13 6 6 6 6 6 6 3 3 3 3 3 3 3 3 3 3 3 3 3 3 3 3 3 0 0 0 0 0 0 0 0
19 19 19 19 19 19 19 19 19 19 13 10 10 6 6 6 6 6 6 3 3 3 3 3 3 3 3 3 3 3 3 3 3 3 3 3 3 3 0 0 0 0 0
19 19 19 19 19 19 19 13 16 19 16 13 10 10 10 6 6 3 3 3 3 3 3 3 3 3 3 3 3 3 3 3 3 3 3 3 3 3 3 3 0 0 0
16 19 19 19 19 16 16 6 3 13 10 10 10 10 10 6 6 6 3 0 0 0 3 3 3 3 3 3 3 3 3 3 3 3 3 3 3 3 3 3 0 0 0
13 19 19 19 13 13 10 0 0 3 10 10 10 10 10 6 6 6 6 3 3 3 3 3 3 3 3 3 3 3 3 3 3 3 3 3 3 3 3 3 0 0 0
16 16 13 13 13 13 6 0 0 0 3 10 10 10 6 6 6 3 6 6 3 3 3 0 3 3 3 0 3 3 3 3 3 3 3 3 3 0 0 0 0 0 0
19 10 10 10 10 10 6 0 0 0 6 6 10 6 3 3 6 0 3 6 6 6 3 3 0 0 0 0 0 0 3 3 3 3 3 0 0 0 0 0 0 0 0

GEFSMA_con_cape1000_234.txt.gz
Probability
52 45 65 45 32 35 32 45 42 52 39 32 19 16 16 16 16 23 39 42 32 42 39 32 32 23 23 23 23 26 32 23 29 32 29 16 19 19 19 19 19 26 23
58 55 68 61 48 48 45 52 45 52 45 42 32 23 23 19 13 29 29 39 29 32 45 39 35 32 26 26 23 26 26 29 32 29 29 23 23 13 13 16 19 23 23
74 71 61 68 55 52 58 65 42 45 52 45 32 29 29 35 29 29 23 29 29 39 42 39 39 35 29 32 26 19 23 26 29 26 26 26 29 19 16 10 10 13 16
74 81 68 65 74 65 61 71 55 52 52 48 48 48 39 61 35 29 29 23 29 19 32 39 35 42 35 35 26 29 26 26 23 23 26 26 19 23 16 13 10 10 13
77 74 74 77 81 61 55 52 65 48 45 58 45 48 32 35 52 26 26 13 32 32 29 42 39 35 29 39 29 26 26 23 19 19 23 19 16 23 16 16 13 10 6
77 77 74 74 74 68 68 65 68 71 68 68 16 23 32 29 39 35 23 26 26 26 23 26 35 23 26 32 35 32 26 19 19 16 16 19 23 23 16 13 6 6 6
71 74 55 77 77 65 61 58 61 55 52 52 45 32 29 23 26 29 35 26 26 26 23 32 39 39 32 16 23 29 23 16 16 19 16 19 19 19 23 19 10 6 3
81 61 77 65 77 81 74 81 77 68 48 48 58 55 48 48 39 13 23 29 23 23 19 13 26 39 32 29 6 10 19 19 16 13 19 16 16 23 23 19 16 10 6
71 81 77 77 81 74 65 74 77 77 61 61 55 52 39 42 42 26 23 13 19 23 19 23 19 29 29 29 23 6 10 16 13 13 19 19 19 16 16 10 10 3 6
68 61 71 68 74 68 74 68 61 71 81 68 71 74 52 48 35 29 26 16 23 23 23 16 16 23 29 29 29 6 3 6 3 10 13 13 10 10 10 10 6 6 6
65 58 68 68 77 71 68 74 81 81 77 71 68 68 65 58 32 23 16 16 16 23 23 23 23 23 26 32 32 10 3 3 3 3 10 10 6 6 6 3 3 3 6
61 52 55 61 71 68 71 77 77 68 71 71 68 65 58 52 42 26 23 26 19 13 16 23 26 16 23 26 10 3 3 0 0 3 3 3 3 3 6 6 0 0 0
52 58 45 65 65 61 58 58 61 61 61 58 65 58 48 48 42 42 35 26 16 13 13 13 16 29 16 19 19 3 3 0 0 0 0 0 3 3 3 3 3 0 0
45 55 55 58 52 52 48 55 55 52 55 52 48 55 55 42 39 32 29 26 23 16 6 13 13 16 13 10 10 0 3 0 0 0 0 0 0 0 0 0 0 0 0
42 45 48 45 42 42 42 45 52 45 42 35 39 39 35 39 39 29 32 35 23 19 16 13 19 13 6 10 3 3 10 0 0 0 0 0 0 0 0 0 0 0 0
45 45 39 32 39 35 39 35 35 45 45 42 39 35 39 32 39 32 35 26 29 26 19 13 13 10 6 6 6 10 10 3 0 0 0 0 0 0 0 0 0 0 0
42 39 35 35 32 32 29 29 29 32 35 35 35 35 32 35 32 32 32 29 29 23 19 16 13 3 10 10 6 10 6 6 3 0 0 0 0 0 0 0 0 0 0
35 35 32 29 29 29 32 26 26 26 26 32 32 29 29 26 26 23 23 23 19 19 16 16 10 3 6 6 6 6 6 3 3 3 0 0 0 0 0 0 0 0 0
35 32 32 29 29 26 26 23 23 23 23 23 26 23 26 23 26 26 19 19 13 10 16 16 10 3 3 3 3 3 6 6 3 3 3 0 0 0 0 0 0 0 0
39 35 32 26 26 26 23 23 23 23 23 26 23 23 19 19 23 19 19 19 23 16 13 13 10 10 3 3 3 3 3 3 3 3 3 3 3 0 0 0 0 0 0
35 35 32 29 23 23 19 19 19 19 23 19 19 19 19 16 10 13 10 19 19 16 13 13 6 10 3 3 3 3 3 3 3 3 6 3 3 3 3 0 0 0 0
32 29 29 26 23 19 19 19 19 19 19 19 19 19 19 13 10 6 6 6 10 13 13 10 6 10 10 3 3 3 3 3 3 6 3 3 3 3 3 3 3 3 0
29 29 26 26 26 19 16 13 6 19 19 19 19 16 13 10 13 13 6 3 0 0 6 16 10 6 6 6 6 3 3 3 3 6 6 6 3 3 3 3 3 0 0
29 29 26 26 26 19 16 13 6 16 19 19 16 16 16 13 13 13 13 13 13 10 6 10 6 6 6 6 6 6 6 3 3 3 3 6 6 3 3 3 0 0 0
32 29 26 26 26 16 16 13 0 19 23 13 13 13 13 13 6 3 10 13 10 6 6 6 6 6 6 6 6 6 3 3 3 3 3 3 3 3 3 3 0 0 0
29 26 23 23 23 16 13 3 0 19 16 13 13 6 6 6 3 3 10 6 6 6 6 6 3 0 3 3 0 3 3 3 3 3 3 3 3 3 3 3 3 0 0

GEFSMA_con_cape1000_240.txt.gz
Probability
90 87 94 94 84 81 81 81 84 81 61 61 48 42 29 39 32 19 29 52 52 52 39 23 23 10 19 23 19 23 16 10 29 29 29 19 19 19 16 19 23 23 23
90 90 84 90 90 94 90 84 81 81 77 71 65 55 52 35 35 35 16 35 52 55 55 35 29 26 26 26 29 29 29 26 35 29 26 26 29 26 19 23 26 26 23
94 94 90 84 90 94 94 94 87 81 81 74 71 68 58 55 42 45 39 32 32 42 48 48 52 42 39 29 39 35 32 39 32 32 26 26 23 29 26 26 19 19 23
90 84 87 77 87 90 90 94 84 90 84 71 74 68 58 61 55 52 45 45 39 23 32 48 48 48 42 35 32 29 29 29 26 29 26 23 19 16 19 16 13 16 13
74 77 84 87 84 84 90 87 87 87 81 68 65 71 68 61 61 45 42 42 48 32 19 32 48 48 42 39 35 32 32 16 29 26 16 16 19 16 13 10 16 16 13
81 77 81 81 84 81 90 87 87 84 77 74 48 39 52 58 58 42 42 32 29 29 29 23 23 19 32 32 35 35 35 19 19 13 10 13 19 23 19 13 10 13 10
87 84 77 90 87 77 81 77 81 81 77 71 61 55 58 48 52 55 39 35 26 19 19 32 16 19 19 23 23 35 29 26 19 16 13 10 10 10 16 13 10 3 6
84 74 87 90 87 87 84 81 81 77 68 65 58 52 48 45 42 29 39 35 32 32 16 19 13 29 19 10 6 16 26 29 19 13 10 10 10 10 6 6 3 3 3
84 90 84 84 90 81 77 81 77 71 74 68 74 58 39 35 45 45 42 32 26 23 26 19 19 23 23 16 6 3 16 16 19 19 16 13 6 6 6 6 3 3 3
87 81 84 90 90 81 77 74 71 74 71 61 71 71 58 48 39 45 52 35 35 26 26 19 16 26 19 19 19 6 3 10 16 16 16 16 16 10 6 6 6 6 3
77 84 84 87 87 84 77 74 74 74 74 68 71 68 61 58 45 32 26 42 35 26 29 23 26 26 19 13 19 13 3 3 6 6 16 13 16 13 10 10 10 6 10
74 77 84 77 81 77 77 74 74 74 71 71 71 68 61 55 52 39 29 23 26 23 23 23 19 19 19 19 10 6 3 3 0 3 3 3 6 6 6 10 6 6 6
71 74 74 74 74 71 71 74 71 68 68 61 61 61 52 48 45 39 26 19 16 16 13 13 13 16 10 10 13 3 3 0 0 0 0 0 3 3 3 3 3 3 6
68 68 68 71 65 68 61 65 61 65 61 61 48 48 45 42 39 39 39 19 19 13 10 10 6 6 3 6 3 3 0 0 0 0 0 0 0 0 0 3 3 3 3
61 65 65 65 61 48 48 55 55 55 48 55 55 48 39 32 35 39 39 35 19 10 10 16 10 3 3 6 3 3 3 0 0 0 0 0 0 0 0 0 0 0 0
65 58 55 48 45 42 35 39 42 42 35 35 39 32 35 32 35 32 35 35 29 19 10 23 10 6 3 3 3 3 3 3 0 0 0 0 0 0 0 0 0 0 0
58 52 48 48 42 35 35 35 32 32 29 26 26 26 29 32 29 29 35 32 23 19 13 19 13 6 6 3 3 3 3 3 3 0 0 0 0 0 0 0 0 0 0
48 52 45 45 32 29 32 32 29 29 26 23 23 26 26 19 23 26 26 19 23 23 19 13 13 6 6 6 3 3 3 3 3 3 0 0 0 0 0 0 0 0 0
45 45 42 35 32 29 26 26 32 29 26 26 26 26 23 19 26 23 19 19 19 19 19 19 10 6 6 3 3 3 3 3 3 3 3 0 0 0 0 0 0 0 0
42 42 35 35 32 29 29 29 29 29 29 29 29 29 23 19 23 19 19 19 19 19 23 16 6 6 6 6 6 3 3 3 3 3 3 3 0 0 0 0 0 0 0
39 42 39 32 32 29 29 29 29 29 32 29 26 26 19 19 16 16 16 19 19 16 19 10 6 6 6 6 6 6 3 3 3 3 3 3 3 3 0 0 0 0 0
45 45 39 32 32 29 26 23 26 29 32 29 26 16 16 16 16 6 6 6 6 10 13 10 10 6 6 6 6 6 3 3 3 3 3 3 3 3 3 3 0 0 0
48 45 42 35 35 26 16 10 6 26 32 32 29 26 16 13 16 13 6 0 0 0 0 10 10 10 6 6 6 6 3 6 3 3 3 3 3 3 3 3 3 0 0
48 45 42 39 39 32 16 10 10 19 29 29 26 19 16 13 10 10 10 10 10 3 0 3 6 10 10 6 3 3 3 3 3 3 3 3 3 3 3 3 3 3 0
48 45 42 42 39 26 13 10 13 26 29 23 23 19 19 13 6 6 6 6 6 3 0 0 0 0 0 0 0 0 3 3 3 3 3 3 3 3 3 3 3 0 0
48 42 42 42 42 32 16 10 6 19 29 26 23 16 10 13 6 3 3 10 6 6 0 0 0 0 0 0 0 0 0 0 3 3 3 3 3 3 3 3 3 0 0

GEFSMA_con_cape1000_246.txt.gz
Probability
3 6 10 3 3 6 3 3 3 3 6 6 3 3 3 6 3 3 10 48 52 55 52 45 35 29 32 23 13 10 10 19 16 13 13 23 19 16 19 19 23 19 16
6 10 10 0 0 3 3 3 0 3 6 6 6 3 3 3 3 6 3 16 48 55 52 45 48 39 35 39 35 32 16 16 23 23 23 16 13 16 19 19 16 13 19
10 16 10 3 6 6 0 0 3 3 3 3 3 3 0 3 6 6 3 3 13 42 42 42 42 45 45 45 42 35 35 35 35 23 23 19 16 19 23 16 13 13 16
16 10 6 6 3 6 6 3 6 6 3 3 3 3 0 0 6 6 3 0 0 3 19 42 39 35 35 35 35 23 19 32 26 29 19 23 16 19 19 13 13 13 13
10 10 10 6 3 10 3 6 6 3 3 3 3 0 0 0 0 0 0 0 0 0 0 10 39 32 29 23 29 32 23 16 13 16 6 10 13 13 6 6 6 10 10
16 13 13 10 3 3 3 3 10 3 3 3 6 6 0 0 3 3 3 3 3 3 0 3 10 13 26 32 29 35 26 19 13 13 6 3 6 3 6 6 6 6 6
32 23 19 10 10 13 10 10 6 0 3 3 3 3 3 0 3 3 0 0 3 3 0 0 0 0 0 26 32 29 29 32 26 13 6 6 3 3 3 6 6 6 6
29 26 16 16 13 10 10 6 6 0 0 3 3 0 0 0 0 3 0 0 0 0 0 0 0 0 0 0 3 23 23 26 29 23 10 10 6 3 3 3 3 3 3
26 19 19 16 13 13 10 10 10 3 0 3 3 0 0 0 0 0 0 0 0 0 0 0 0 0 0 0 0 3 16 16 29 32 19 10 10 3 3 3 3 3 6
26 19 16 23 13 16 10 10 13 6 0 6 6 3 0 0 3 3 0 0 0 0 0 0 0 0 0 0 0 0 3 13 19 26 23 23 13 6 3 3 3 3 3
23 32 26 16 19 23 19 16 16 16 13 13 13 10 10 3 0 0 0 0 0 0 0 0 0 0 0 0 0 0 0 3 6 10 10 16 13 6 6 6 3 3 3
19 32 29 26 29 32 23 16 19 16 10 10 10 13 10 10 6 0 0 0 0 0 0 0 0 0 0 0 0 0 0 0 0 3 3 3 6 6 10 10 10 6 6
23 26 29 23 23 19 23 16 16 16 16 19 16 10 10 10 10 3 0 0 0 0 0 0 0 0 0 0 0 0 0 0 0 0 0 0 3 3 3 6 10 10 10
19 13 19 23 19 19 26 19 19 16 16 16 19 16 13 10 10 10 3 3 3 0 0 3 0 0 0 0 0 0 0 0 0 0 0 0 0 0 0 0 3 3 3
10 13 19 23 23 23 19 16 19 16 13 16 16 16 16 13 13 16 13 3 3 3 3 3 0 0 0 0 0 0 0 0 0 0 0 0 0 0 0 0 0 0 0
19 16 19 19 19 19 19 16 16 16 16 13 13 13 13 13 16 16 16 10 6 6 3 3 3 3 3 3 0 0 0 0 0 0 0 0 0 0 0 0 0 0 0
26 16 26 26 16 19 19 16 13 16 16 16 13 13 13 13 16 16 16 10 6 6 6 3 3 3 3 3 3 3 0 0 0 0 0 0 0 0 0 0 0 0 0
29 32 29 26 19 13 13 16 19 16 13 16 13 13 13 13 13 16 16 10 6 6 3 6 3 3 3 3 3 3 3 3 3 0 0 0 0 0 0 0 0 0 0
29 32 29 29 19 16 16 19 19 16 13 16 13 16 16 16 16 13 13 10 10 6 6 6 6 3 3 3 3 3 3 3 3 3 0 0 0 0 0 0 0 0 0
32 29 29 26 23 23 23 23 19 16 16 16 19 19 16 16 16 13 13 10 10 6 6 6 3 3 3 3 3 3 3 3 3 3 3 3 0 0 0 0 0 0 0
35 35 29 29 26 26 26 26 23 26 19 19 19 19 19 16 13 13 13 10 10 6 6 0 0 0 0 0 0 0 0 0 0 0 3 3 3 3 0 0 0 0 0
35 32 32 32 32 29 29 23 23 26 23 23 19 16 16 16 13 10 3 3 3 0 0 0 0 0 0 0 0 0 0 0 0 0 0 0 3 3 3 0 0 0 0
29 29 32 32 32 29 23 23 16 19 23 23 19 16 16 10 10 6 0 0 0 0 0 0 0 0 0 0 0 0 0 0 0 0 0 0 0 0 3 3 0 0 0
26 29 32 32 32 26 19 19 16 10 6 16 13 13 10 10 10 3 3 3 0 0 0 0 0 0 0 0 0 0 0 0 0 0 0 0 0 0 0 3 0 0 0
29 29 32 32 29 26 19 16 10 13 13 16 13 13 10 10 10 0 0 0 0 0 0 0 0 0 0 0 0 0 0 0 0 0 0 0 0 0 0 0 3 0 0
26 32 32 29 26 26 23 13 10 13 16 13 6 6 3 3 3 0 0 0 0 0 0 0 0 0 0 0 0 0 0 0 0 0 0 0 0 0 0 0 0 0 0

GEFSMA_con_cape1000_252.txt.gz
Probability
0 0 0 0 0 0 3 3 3 3 3 3 3 3 3 3 3 3 3 19 32 42 39 42 35 29 26 23 19 16 10 13 19 16 10 13 10 16 13 19 16 16 13
0 0 0 0 0 0 0 3 3 3 0 3 3 3 3 3 3 3 3 13 29 42 42 29 35 35 26 26 26 23 29 19 23 32 19 10 13 13 10 13 10 10 19
0 0 0 0 0 0 0 3 3 3 3 3 3 0 0 3 3 3 3 3 10 29 45 42 39 45 35 26 26 26 19 19 23 26 26 13 16 13 13 16 16 13 10
0 0 0 0 0 0 0 0 0 3 3 3 3 0 0 0 3 0 0 0 3 6 16 39 42 39 39 29 26 19 26 23 23 19 10 10 10 13 13 13 13 13 10
0 0 0 0 0 0 0 0 0 0 3 3 3 3 0 0 0 0 3 3 0 0 0 3 29 39 42 32 35 32 29 32 26 13 10 10 10 10 10 10 10 13 10
3 0 0 0 0 3 0 0 0 0 3 3 3 3 3 6 0 0 0 3 0 0 3 3 6 19 32 26 26 29 26 32 32 19 6 10 13 10 13 10 10 10 6
6 0 0 0 0 0 0 0 3 0 0 3 3 0 0 3 3 3 3 3 3 3 0 0 0 3 6 16 19 23 23 26 26 26 23 13 16 13 13 10 6 6 3
6 3 0 0 0 3 3 3 0 0 0 3 3 0 0 0 3 0 0 3 0 0 3 0 0 0 0 0 0 13 23 23 23 23 26 19 10 13 10 10 3 3 3
6 6 3 0 0 0 3 3 3 0 0 3 3 3 3 3 0 3 0 0 0 0 0 3 3 0 0 0 0 0 6 23 23 26 29 26 19 13 13 6 6 3 3
13 16 13 3 0 3 3 10 6 3 0 3 3 3 3 0 6 6 3 0 0 0 0 0 0 0 3 0 0 0 0 0 10 23 26 26 23 13 6 6 6 6 3
10 13 13 10 6 3 3 3 6 6 3 6 10 10 6 3 3 6 6 0 0 0 0 0 0 0 0 0 3 0 0 0 0 3 6 13 13 16 10 6 6 6 3
6 10 10 10 6 6 3 3 3 13 10 10 10 13 10 6 10 3 6 3 0 0 0 0 0 0 0 0 0 0 0 0 0 0 0 0 10 13 16 13 6 6 6
3 6 10 10 10 10 10 6 6 13 13 10 10 6 10 10 10 3 3 3 0 0 0 0 0 0 0 0 0 0 0 0 0 0 0 0 0 0 0 6 10 10 6
6 6 13 16 13 13 13 13 13 10 13 10 6 6 10 13 10 10 6 6 10 3 3 3 3 0 0 0 0 0 0 0 0 0 0 0 0 0 0 0 0 0 0
10 10 10 19 16 13 16 16 13 13 19 13 13 13 16 16 19 13 13 6 10 10 10 6 3 3 0 0 0 0 0 0 0 0 0 0 0 0 0 0 0 0 0
10 10 10 16 16 13 13 13 10 6 10 10 10 13 16 16 13 16 16 13 13 13 13 10 6 6 3 3 3 3 3 0 0 0 0 0 0 0 0 0 0 0 0
10 10 10 13 16 16 16 13 10 6 10 13 13 13 16 13 13 16 16 13 13 13 13 10 6 6 3 3 3 3 3 3 3 0 0 0 0 0 0 0 0 0 0
13 10 10 13 23 19 13 13 13 13 13 13 13 13 13 13 13 16 16 13 13 13 13 13 6 6 3 3 3 0 0 0 0 0 0 0 0 0 0 0 0 0 0
13 13 16 16 23 23 19 16 16 13 13 10 13 13 13 10 13 13 16 16 13 13 13 10 6 6 3 0 0 0 0 0 0 0 0 0 0 0 0 0 0 0 0
29 23 26 26 29 23 19 26 19 19 16 13 13 13 13 10 10 10 13 13 13 13 10 6 3 0 0 0 0 0 0 0 0 0 0 0 0 0 0 0 0 0 0
32 32 29 29 26 26 23 26 26 23 23 19 13 13 13 13 10 10 10 13 13 10 6 0 0 0 0 0 0 0 0 0 0 0 0 0 0 0 0 0 0 0 0
29 32 29 26 26 26 19 19 19 23 23 23 19 16 16 16 13 0 0 0 0 6 10 0 0 0 0 0 0 0 0 0 0 0 0 0 0 0 0 0 0 0 0
26 26 29 26 26 26 13 10 3 16 23 23 19 16 16 13 10 10 10 3 0 0 3 0 0 0 0 0 0 0 0 0 0 0 0 0 0 0 0 0 0 0 0
23 26 23 23 29 23 16 6 6 6 19 16 19 16 16 16 10 13 13 10 0 0 0 0 0 0 0 0 0 0 0 0 0 0 0 0 0 0 0 0 0 0 0
26 23 23 26 23 23 16 3 6 13 19 16 16 13 13 13 10 3 6 6 0 0 0 0 0 0 0 0 0 0 0 0 0 0 0 0 0 0 0 0 0 0 0
29 23 19 19 19 19 16 0 0 10 16 16 16 10 3 6 6 3 3 3 3 0 0 0 0 0 0 0 0 0 0 0 0 0 0 0 0 0 0 0 0 0 0

GEFSMA_con_cape1000_258.txt.gz
Probability
48 42 48 55 23 26 35 48 39 45 45 35 29 26 29 26 19 23 26 35 29 39 35 35 29 29 32 29 23 19 19 19 23 26 23 16 10 10 10 13 16 19 16
58 48 55 65 42 39 42 48 45 45 32 32 19 26 32 26 26 23 29 29 35 35 39 29 29 32 29 29 32 29 19 13 32 29 13 10 13 13 13 10 10 13 16
58 52 35 39 52 48 52 52 35 32 35 32 29 26 29 35 32 29 23 29 42 35 42 39 39 35 35 29 26 26 23 19 23 23 16 13 13 19 13 16 13 13 10
52 68 48 52 61 45 42 52 39 35 39 35 42 39 29 42 32 29 29 35 39 39 39 42 39 42 42 32 35 23 26 23 16 19 19 13 13 6 6 10 10 13 13
58 58 61 65 48 45 29 23 45 39 48 45 39 45 32 32 26 16 23 29 35 39 32 48 45 39 35 32 32 26 23 29 29 23 19 10 10 10 3 6 10 10 10
61 55 58 65 52 45 48 68 65 65 61 55 29 26 23 23 32 29 26 23 32 29 35 35 48 32 32 29 29 26 23 29 35 29 23 19 16 13 6 3 6 10 13
65 74 52 61 55 55 61 48 52 55 52 61 45 29 32 29 35 32 32 23 23 26 39 42 42 39 39 16 26 26 19 26 32 29 26 19 16 3 6 3 6 6 13
61 48 68 55 68 68 58 58 65 55 52 55 52 42 29 26 29 13 26 29 32 29 32 32 35 42 35 32 29 19 23 29 26 26 29 23 19 16 10 10 6 3 0
58 61 61 61 71 58 61 61 58 55 52 55 52 32 48 32 26 16 23 26 29 39 39 35 32 39 39 35 32 13 23 19 26 26 29 29 23 19 10 13 10 6 3
61 58 61 65 68 58 61 55 48 55 58 48 48 52 48 39 35 35 29 26 26 35 35 19 23 32 35 39 32 13 10 10 13 26 29 29 32 23 13 6 3 6 6
52 45 55 65 61 65 65 61 61 48 52 48 52 52 52 52 45 32 26 35 23 19 26 23 19 26 26 29 32 16 0 0 0 6 10 16 26 23 16 13 10 6 3
52 45 52 61 61 55 52 55 58 55 48 52 42 42 42 45 39 39 35 29 29 23 19 23 16 19 19 16 10 6 0 0 0 3 3 3 6 10 6 10 10 10 6
39 55 42 55 58 55 48 52 48 48 42 45 42 45 39 35 32 23 32 26 16 16 19 23 23 13 16 23 16 6 6 0 0 0 0 0 0 0 0 3 3 3 3
35 35 45 52 52 52 45 48 39 39 45 39 35 42 39 26 26 26 35 23 19 16 16 19 16 13 16 19 10 3 10 3 0 0 0 0 0 0 0 0 0 0 0
42 45 48 48 48 48 48 45 45 48 45 35 35 32 32 26 32 29 26 26 26 16 19 23 19 16 13 16 6 6 10 10 0 0 0 0 0 0 0 0 0 0 0
52 48 45 45 48 45 45 48 45 48 48 42 39 35 35 32 32 26 23 29 29 26 23 19 16 16 13 6 6 6 10 3 0 0 0 0 0 0 0 0 0 0 0
58 52 52 52 48 52 48 48 39 39 35 42 39 35 35 35 32 32 29 26 29 32 26 19 16 16 16 16 6 10 6 6 3 0 0 0 0 0 0 0 0 0 0
55 55 55 55 48 45 48 42 39 35 35 35 32 39 32 32 35 35 32 29 29 29 26 19 19 13 16 16 6 6 3 3 3 0 0 0 0 0 0 0 0 0 0
58 55 52 52 52 48 48 45 42 39 35 39 32 32 32 32 39 39 39 32 26 26 26 23 19 13 16 10 3 3 3 3 3 0 0 0 0 0 0 0 0 0 0
55 58 52 52 52 48 48 42 32 32 35 35 32 35 35 35 39 39 39 32 32 29 26 23 19 16 6 3 3 3 3 3 3 3 3 0 0 0 0 0 0 0 0
52 52 52 48 48 48 42 39 35 35 35 29 29 32 32 29 29 29 29 29 32 29 26 23 23 10 3 3 0 0 0 0 0 0 3 3 3 3 0 0 0 0 0
52 48 48 48 42 39 23 19 23 39 39 35 35 32 32 29 26 10 3 3 19 26 29 26 19 16 16 13 10 3 0 0 0 0 3 3 0 3 3 3 0 0 0
52 48 48 48 45 35 19 3 0 26 35 35 35 35 29 26 23 32 10 6 3 0 3 19 23 23 23 16 10 6 6 3 3 3 3 3 3 0 3 3 0 0 0
58 52 48 42 48 29 19 10 3 16 32 32 32 35 35 32 29 29 29 26 19 19 13 10 19 23 23 19 19 13 10 0 0 3 3 3 3 3 3 3 0 0 0
55 48 42 39 42 29 19 10 0 26 29 29 23 26 23 29 23 13 19 26 26 26 6 0 3 3 0 0 3 6 6 3 3 0 0 0 3 3 0 0 0 0 0
48 45 42 42 35 35 26 6 0 29 32 26 26 19 19 19 13 10 19 23 23 23 16 13 3 0 0 0 0 0 6 3 0 0 0 3 0 0 0 0 0 3 0